{"data":{"norad_id":60580,"epoch":"2026-09-22T17:01:46.063488Z","epoch_age_seconds":98112,"freshness":"FRESH","line1":"1 60580U 24149DS  26265.70956092  .00005125  00000+0  33614-3 0  9990","line2":"2 60580  97.6577 345.8013 0009025  24.2879 335.8772 15.08086635115086","mean_motion":15.08086635,"eccentricity":0.0009025,"inclination_deg":97.6577,"raan_deg":345.8013,"arg_perigee_deg":24.2879,"mean_anomaly_deg":335.8772,"bstar":0.00033614,"rev_number":11508,"period_min":95.48523052855,"perigee_km":535.80161680274,"apogee_km":548.29254907244,"semimajor_km":6920.1840829376,"source":"CELESTRAK","updated_at":"2026-09-23T09:00:20.704824Z"}}